This demonstration page uses our WeatherBlox Daily Observations layout. Learn more.

Left ArrowRight Arrow

38.88101, -77.10428

Hourly Observations for July 10, 2020

Temp ( °F °C ) Dew Point ( °F °C ) Humidity (%) Winds ( mph kmh ) Pressure ( in mb ) Visibility ( mi km ) Precip ( " mm )
12:52 am 00:52 Partly Cloudy 79 26.1 73 22.8 82 82 ENE 9 15 29.94 1014 10 16.0934 0 0
1:52 am 01:52 Mostly Cloudy 78 25.6 73 22.8 85 85 N 8 13 29.93 1014 10 16.0934 0 0
2:34 am 02:34 Mostly Cloudy 78 25.6 73 22.8 85 85 N 9 15 29.93 1013 10 16.0934 0 0
2:52 am 02:52 Cloudy 78 25.6 72 22.2 82 82 N 8 13 29.92 1013 10 16.0934 0 0
3:10 am 03:10 Mostly Clear 78 25.6 72 22.2 82 82 N 9 15 29.91 1013 10 16.0934 0 0
3:52 am 03:52 Partly Cloudy 78 25.6 73 22.8 85 85 NNE 14 22 29.91 1013 10 16.0934 0 0
4:52 am 04:52 Mostly Cloudy 78 25.6 73 22.8 85 85 NNE 12 19 29.89 1012 10 16.0934 0 0
5:52 am 05:52 Mostly Cloudy 77 25 72 22.2 85 85 N 14 22 29.88 1012 10 16.0934 0 0
6:15 am 06:15 Mostly Cloudy 77 25 73 22.8 88 88 NNE 12 19 29.88 1012 10 16.0934 0.001 0.001
6:52 am 06:52 Partly Cloudy 77 25 73 22.8 88 88 NNE 13 20 29.87 1012 10 16.0934 0.001 0.001
7:52 am 07:52 Mostly Cloudy 77 25 72 22.2 85 85 NNE 12 19 29.88 1012 10 16.0934 0 0
8:01 am 08:01 Mostly Cloudy 78 25.6 72 22.2 82 82 NNE 13 20 29.87 1011 10 16.0934 0 0
8:24 am 08:24 Partly Cloudy 80 26.7 73 22.8 79 79 N 12 19 29.86 1011 10 16.0934 0 0
8:52 am 08:52 Mostly Cloudy 80 26.7 72 22.2 76 76 N 12 19 29.87 1011 10 16.0934 0 0
9:08 am 09:08 Mostly Cloudy 80 26.7 72 22.2 76 76 N 12 19 29.86 1011 10 16.0934 0 0
9:52 am 09:52 Mostly Cloudy 81 27.2 72 22.2 74 74 N 14 22 29.85 1011 10 16.0934 0 0
10:52 am 10:52 Mostly Cloudy 82 27.8 72 22.2 72 72 N 13 20 29.86 1011 10 16.0934 0 0
11:17 am 11:17 Mostly Cloudy 83 28.3 71 21.7 67 67 NNE 14 22 29.86 1011 10 16.0934 0 0
11:52 am 11:52 Mostly Cloudy 84 28.9 72 22.2 67 67 NNW 16 26 29.85 1011 10 16.0934 0 0
12:52 pm 12:52 Mostly Cloudy 87 30.6 71 21.7 59 59 NNW 16 26 29.84 1011 10 16.0934 0 0
1:52 pm 13:52 Mostly Cloudy 88 31.1 72 22.2 59 59 NNW 12 19 29.8 1009 10 16.0934 0 0
2:52 pm 14:52 Mostly Cloudy 86 30 70 21.1 59 59 NNE 9 15 29.79 1009 10 16.0934 0 0
3:52 pm 15:52 Mostly Cloudy 88 31.1 71 21.7 57 57 N 9 15 29.77 1008 10 16.0934 0 0
4:52 pm 16:52 Partly Cloudy 90 32.2 71 21.7 54 54 NE 8 13 29.76 1008 10 16.0934 0 0
5:52 pm 17:52 Partly Cloudy 89 31.7 72 22.2 57 57 NE 8 13 29.75 1007 10 16.0934 0 0
6:52 pm 18:52 Partly Cloudy 88 31.1 71 21.7 57 57 N 8 13 29.75 1007 10 16.0934 0 0
7:52 pm 19:52 Mostly Sunny 87 30.6 71 21.7 59 59 ENE 3 6 29.74 1007 10 16.0934 0 0
8:52 pm 20:52 Partly Cloudy 84 28.9 72 22.2 67 67 SSE 7 11 29.76 1008 10 16.0934 0 0
9:52 pm 21:52 Partly Cloudy 82 27.8 73 22.8 74 74 SSE 6 9 29.77 1008 10 16.0934 0 0
10:52 pm 22:52 Partly Cloudy 82 27.8 72 22.2 72 72 S 7 11 29.75 1008 10 16.0934 0 0
11:52 pm 23:52 Partly Cloudy 81 27.2 73 22.8 77 77 S 8 13 29.74 1007 10 16.0934 0 0

Powered by AerisWeather